Flag for Nigeria Weather past 2 weeks in Lagos, Nigeria

Now
82 °F

Scattered clouds.


Feels Like: 87 °F
Forecast: 73 / 86 °F
Wind: 8 mph from Southwest

Location: Lagos / Ikeja

Current Time: Aug 1, 2015 at 7:29:26 PM

Latest Report: Aug 1, 2015 at 6:00 PM


Visibility: N/A

Pressure: 29.80 "Hg

Humidity: 70%

Dew point: 72 °F

Location of LagosLocation

Historic Weather in Lagos — Graph

°F

Lagos temperature yesterday

Maximum temperature yesterday: 86 °F (at 2:00 PM)
Minimum temperature yesterday: 72 °F (at 4:00 AM)
Average temperature yesterday: 79 °F

Past Weeks' High & Low Weather Summary

 TemperatureHumidityPressure
High88 °F (Jul 26, 2:00 PM)100% (Jul 22, 5:00 AM)30.01 "Hg (Jul 22, 5:00 AM)
Low70 °F (Jul 29, 6:00 AM)55% (Jul 26, 4:00 PM)29.80 "Hg (Aug 1, 6:00 PM)
Average79 °F83%29.91 "Hg
* Reported Jul 17 6:00 PM — Aug 1 6:00 PM, Lagos, Weather by CustomWeather, © 2015

Note: Actual official high and low records may vary slightly from our data, if they occured in-between our weather recording intervals... More about our weather records

Advertising

Lagos weather history for previous 24 hours

 ConditionsComfort  
Time TempWeatherWind HumidityBarometerVisibility
6:00 PM
Sat, Aug 1
82 °FScattered clouds.8 mph70%29.80 "HgN/A
5:00 PM84 °FScattered clouds.8 mph70%29.83 "HgN/A
4:00 PM82 °FScattered clouds.7 mph74%29.83 "HgN/A
3:00 PM86 °FPartly sunny.9 mph66%29.89 "HgN/A
2:00 PM82 °FPartly sunny.9 mph74%29.89 "HgN/A
1:00 PM81 °FPartly sunny.6 mph74%29.92 "HgN/A
12:00 PM82 °FPartly sunny.6 mph70%29.95 "HgN/A
11:00 AM82 °FPartly sunny.7 mph74%29.95 "HgN/A
10:00 AM81 °FPartly sunny.7 mph79%29.95 "HgN/A
8:00 AM75 °FScattered clouds.2 mph89%29.92 "Hg4 mi
7:00 AM75 °FPassing clouds.3 mph89%29.89 "Hg5 mi
6:00 AM75 °FPassing clouds.5 mph89%29.89 "Hg5 mi
5:00 AM75 °FPassing clouds.7 mph89%29.86 "Hg5 mi
4:00 AM77 °FPassing clouds.2 mph83%29.86 "Hg5 mi
3:00 AM77 °FPassing clouds.6 mph83%29.86 "Hg5 mi
2:00 AM84 °FPassing clouds.8 mph70%29.89 "Hg5 mi
1:00 AM77 °FPassing clouds.6 mph83%29.92 "Hg5 mi
11:00 PM
Fri, Jul 31
77 °FPassing clouds.7 mph83%29.92 "HgN/A
10:00 PM79 °FPassing clouds.8 mph79%29.89 "HgN/A
9:00 PM79 °FPassing clouds.9 mph84%29.89 "HgN/A
8:00 PM79 °FPassing clouds.13 mph84%29.86 "HgN/A
7:00 PM82 °FPassing clouds.5 mph70%29.86 "HgN/A
Weather by CustomWeather, © 2015

See weather overviewHow to use our weather pages